Regional Weather Roundup
Issued by NWS

Home | Current Version | Previous Version | Graphics & Text | Print | Product List | Glossary On
Versions: 1 2 3 4 5 6 7 8 9 10 11 12 13 14 15 16 17 18 19 20 21 22 23 24 25 26 27 28 29 30 31 32 33 34 35 36 37 38 39 40 41 42 43 44 45 46 47 48 49 50
000
ASUS43 KBIS 240310
RWRND

NORTH DAKOTA REGIONAL WEATHER ROUNDUP
NATIONAL WEATHER SERVICE BISMARCK ND
1000 PM CDT WED JUL 23 2014

NOTE: "FAIR" INDICATES FEW OR NO CLOUDS BELOW 12,000 FEET WITH NO
SIGNIFICANT WEATHER AND/OR OBSTRUCTIONS TO VISIBILITY.


NDZ001>003-009>011-017-240400-
NORTHWEST NORTH DAKOTA

CITY           SKY/WX    TMP DP  RH WIND       PRES   REMARKS
WILLISTON      MOCLDY    78  63  59 E14       30.01F
MINOT          CLEAR     69  63  81 E10       30.10F
MINOT AFB      CLEAR     69  67  96 E13       30.10S
$$

NDZ018>021-031>035-040>046-240400-
SOUTHWEST NORTH DAKOTA

CITY           SKY/WX    TMP DP  RH WIND       PRES   REMARKS
BISMARCK       CLEAR     71  60  68 SE10      30.10S
DICKINSON      CLEAR     69  60  73 SE12      30.05S
GARRISON         N/A     72  65  78 SE9       30.09F
HETTINGER ARPT CLEAR     72  56  57 E14       30.07S
$$

NDZ004>008-012>016-024-026-027-054-240400-
NORTHEAST NORTH DAKOTA

CITY           SKY/WX    TMP DP  RH WIND       PRES   REMARKS
GRAND FORKS    PTCLDY    65  60  84 N3        30.17S
GRND FRKS AFB  PTCLDY    65  59  79 NE3       30.19S
DEVILS LAKE    CLEAR     66  57  72 E10       30.17R
$$

NDZ022-023-025-028>030-036>039-047>053-240400-
SOUTHEAST NORTH DAKOTA

CITY           SKY/WX    TMP DP  RH WIND       PRES   REMARKS
FARGO          CLEAR     68  59  73 E5        30.17S
JAMESTOWN      CLEAR     68  60  75 SE7       30.16S
$$



USA.gov is the U.S. government's official web portal to all federal, state and local government web resources and services.